Regional Weather Roundup
Issued by NWS

Home | Current Version | Previous Version | Graphics & Text | Print | Product List | Glossary On
Versions: 1 2 3 4 5 6 7 8 9 10 11 12 13 14 15 16 17 18 19 20 21 22 23 24 25 26 27 28 29 30 31 32 33 34 35 36 37 38 39 40 41 42 43 44 45 46 47 48 49 50
000
ASUS43 KTOP 012259
RWRKS

WEATHER ROUNDUP FOR KANSAS
NATIONAL WEATHER SERVICE GOODLAND KS
500 PM CST SUN FEB 01 2015

NOTE:  "FAIR" INDICATES FEW OR NO CLOUDS BELOW 12,000 FEET WITH NO
SIGNIFICANT WEATHER AND/OR OBSTRUCTIONS TO VISIBILITY.

KSZ001>006-013>018-027>032-041>047-020000-
NORTHWEST KANSAS

CITY           SKY/WX    TMP DP  RH WIND       PRES   REMARKS
GOODLAND       MOSUNNY   16   7  67 N26G37    30.23R WCI  -3
HAYS           CLOUDY    18   1  49 N23G32    30.26R WCI   0
HILL CITY      MOCLDY    16   6  65 N26G35    30.28R WCI  -3
RUSSELL        MOCLDY    16   8  71 N26G33    30.25R WCI  -3
$$

KSZ061>065-074>080-084>089-020000-
SOUTHWEST KANSAS

CITY           SKY/WX    TMP DP  RH WIND       PRES   REMARKS
DODGE CITY     PTSUNNY   22   7  52 N30G38    30.22S WCI   4
ELKHART          N/A     30  16  56 N16         N/A  WCI  19
GARDEN CITY    MOSUNNY   21   8  57 N30       30.24R WCI   3
LIBERAL        SUNNY     28  12  50 N30       30.25R WCI  13
$$

KSZ066>073-081>083-090>101-020000-
SOUTHEAST KANSAS

CITY           SKY/WX    TMP DP  RH WIND       PRES   REMARKS
CHANUTE        CLOUDY    21  12  68 NW24G33   30.09R WCI   4
COFFEYVILLE    CLOUDY    24  13  62 NW26G36   30.12R WCI   8
HUTCHINSON     CLOUDY    20   9  62 N25G38    30.20R WCI   2
MEDICINE LODGE   N/A     24  13  62 N17G35    30.21R WCI  11
NEWTON         PTCLDY    18   3  53 N29G40    30.17R WCI  -2
PARSONS        FLURRIES  23  14  68 NW23G32   30.11R WCI   7
WICHITA INTL   FLURRIES  21   9  59 N29G39    30.19R WCI   3
WICHITA JABRA  FLURRIES  19  17  92 NW29G38   30.17R WCI   0
WICHITA MCCONL MOCLDY    19   9  63 N29G36    30.17R WCI   1
WINFIELD       CLOUDY    23  12  62 NW30G40   30.19R WCI   5
$$

KSZ007>012-019>026-033>040-048>060-102>105-020000-
NORTHEAST KANSAS

CITY           SKY/WX    TMP DP  RH WIND       PRES   REMARKS
CONCORDIA      LGT SNOW  11   6  81 N20G31    30.24R WCI  -7
EMPORIA        LGT SNOW  15  10  80 NW25G38   30.13R WCI  -4
LAWRENCE       LGT SNOW  19  13  77 NW23G33   30.09R WCI   2
MANHATTAN      LGT SNOW  13   6  74 N10G25    30.23R WCI   0
OLATHE IND     LGT SNOW  20  15  81 NW28G36   30.04R WCI   2
OLATHE EXE     LGT SNOW  21  15  78 N21G35    30.00R WCI   5
SALINA         LGT SNOW  16  10  77 NW26G37   30.24R WCI  -3
TOPEKA BILLARD LGT SNOW  17   9  70 NW28G33   30.14R WCI  -2
TOPEKA FORBES  LGT SNOW  18  10  71 NW33G43   30.10R WCI  -2
$$



USA.gov is the U.S. government's official web portal to all federal, state and local government web resources and services.